RH
66 65 68 66 63 56 52 51 44 32 31 66 70 26 14 22 27 34 23 17 29 66 82 80 69 80 95
65 72 74 67 60 56 57 52 49 40 33 41 51 68 64 67 77 58 38 23 24 60 83 93 83 69 68
79 75 77 71 64 62 62 65 64 54 58 53 65 69 68 56 79 86 72 68 44 48 71 91 89 79 70
86 78 78 83 77 76 67 57 51 52 59 54 62 61 56 60 56 69 72 70 61 58 61 69 81 85 79
97 98 93 88 78 73 71 62 64 61 72 59 51 63 55 57 63 69 77 93 95 80 64 61 73 94 91
97 100 91 93 93 90 91 84 76 55 69 51 57 54 52 60 58 71 83 85 89 98 99 100 98 98 98
92 94 100 84 98 98 86 76 68 54 85 84 44 49 48 60 54 74 67 65 73 78 90 87 98 93 96
90 93 93 96 96 98 91 80 76 59 81 80 50 54 44 50 67 84 68 56 74 69 63 64 82 87 99
82 86 92 87 94 98 96 91 80 67 57 67 48 53 53 53 74 81 74 87 81 92 96 84 73 74 76
81 85 86 81 84 93 97 97 87 88 71 80 58 62 74 73 72 59 68 46 36 74 91 88 83 80 80
96 88 83 84 79 80 80 83 74 72 68 79 76 77 75 75 72 61 51 36 35 32 32 72 80 99 98
94 91 87 84 78 76 77 84 77 72 71 72 92 91 91 68 72 55 57 46 44 32 26 47 88 97 99
94 91 86 89 88 80 82 88 78 67 66 60 78 82 91 89 81 72 60 57 49 42 36 46 75 91 77
95 87 94 99 91 82 90 79 74 65 62 59 62 85 90 91 87 84 76 76 57 47 40 30 38 42 70
96 89 92 94 87 83 86 89 85 82 74 60 59 77 100 100 95 97 91 70 56 56 50 34 24 32 31
94 95 95 98 95 92 93 93 92 100 100 100 99 100 100 100 96 92 80 67 65 61 65 75 29 26 32
89 97 96 97 94 96 97 96 96 88 93 94 86 94 95 93 75 80 72 72 79 82 97 100 94 50 44
Wind_Speed
41 40 36 33 31 29 29 30 34 33 31 29 30 29 30 32 35 35 33 31 30 29 29 26 25 27 27
46 42 36 33 30 31 32 33 30 31 31 31 31 25 26 28 29 30 34 32 31 30 28 29 27 24 27
42 43 38 37 37 33 31 30 30 32 30 29 26 28 30 31 30 26 26 28 29 30 30 28 27 26 25
40 43 37 35 31 29 30 31 33 30 31 31 29 30 26 26 34 34 29 30 30 28 28 30 29 27 27
38 38 39 34 34 34 32 32 35 33 32 32 28 28 29 29 26 26 23 21 21 24 26 27 29 28 26
36 36 43 41 35 31 27 31 34 36 30 32 29 29 28 26 25 23 23 24 27 21 22 23 25 28 27
38 40 39 41 42 28 29 35 36 36 30 32 33 32 29 28 25 22 23 27 30 31 30 24 26 29 30
35 36 38 36 33 26 27 30 32 35 29 33 34 32 29 26 22 24 25 25 21 22 27 29 27 26 29
34 34 31 32 31 31 34 33 34 35 30 28 31 29 25 26 22 22 17 13 14 13 13 16 22 29 33
35 33 32 31 28 27 29 29 30 32 29 25 28 23 23 22 16 14 13 16 17 14 15 14 15 21 26
38 36 35 32 29 27 28 28 29 30 28 25 25 24 20 20 19 21 20 16 12 14 17 16 16 15 21
33 35 33 32 29 27 26 25 26 26 26 23 25 23 22 24 27 23 20 19 19 17 16 13 14 19 14
31 34 33 30 26 25 22 24 23 25 23 22 23 26 25 24 26 23 23 23 21 13 17 11 11 12 17
27 28 28 27 25 23 22 21 22 22 20 21 21 24 25 26 25 26 24 25 27 24 22 19 15 13 18
25 24 25 23 22 22 21 22 22 23 25 21 20 21 25 25 26 29 28 28 27 25 23 23 17 16 17
24 23 25 23 22 20 19 19 21 21 20 18 16 16 19 24 26 29 29 25 19 19 18 22 23 15 16
25 23 22 21 21 20 20 20 21 21 24 21 19 21 23 29 30 26 26 20 17 17 17 17 21 19 18
Wind_Direction
290 291 289 287 286 290 292 290 294 298 297 293 293 293 289 287 282 279 273 271 270 269 265 264 264 258 249
291 293 289 285 284 287 285 290 292 297 299 296 299 302 299 293 289 283 281 273 267 267 267 260 259 259 254
288 290 289 285 286 283 286 287 286 292 292 292 293 288 284 281 288 285 285 280 267 262 259 260 259 257 255
286 290 288 289 284 278 280 284 288 292 291 290 289 293 299 290 276 281 286 283 276 269 261 257 256 256 256
286 289 288 285 278 277 277 285 286 286 285 289 293 289 293 295 289 283 279 283 272 265 260 257 256 253 253
287 287 289 289 275 272 277 284 282 285 285 288 292 290 291 294 292 295 270 277 274 269 260 257 255 252 249
287 287 287 289 286 259 275 277 277 282 283 285 286 287 288 290 295 290 284 274 270 275 276 254 252 248 247
289 290 291 287 280 280 278 278 279 279 277 279 284 287 291 291 283 283 293 283 274 272 266 265 263 254 256
295 290 288 288 281 274 273 277 281 284 283 280 282 285 288 289 281 282 283 291 280 267 276 273 261 253 254
299 298 294 291 284 273 276 272 276 281 287 281 280 278 281 288 277 268 257 295 297 291 279 279 277 264 253
291 293 293 291 288 284 270 274 277 279 284 284 275 270 265 266 259 275 290 296 303 302 285 273 261 268 263
293 290 290 293 290 290 284 273 278 276 279 280 270 263 267 272 274 281 289 300 305 306 297 276 259 267 263
288 290 292 295 293 290 279 276 273 274 270 272 267 265 258 265 272 281 291 302 309 314 311 305 276 274 269
289 294 294 291 286 288 280 276 276 276 272 272 266 264 266 259 264 274 283 290 300 304 302 294 273 272 264
294 296 297 293 291 285 280 274 274 273 276 269 266 258 259 265 266 269 277 287 297 303 297 296 286 283 287
309 307 303 296 293 288 282 276 269 266 268 274 274 267 265 260 261 273 283 290 293 297 292 283 287 280 286
301 296 302 297 290 288 281 276 270 268 267 273 267 261 255 258 269 276 283 283 292 289 291 279 282 288 290